| time (UTC) | temp F | wind direction | speed knots | gust knots | rain 1hr in | rain 24hr in | rain mn in | humidity % | barometer mb |
| 20260906233529 | 78 | 174 | 14.8 | 0.0 | 0.00 | 0.00 | 0.00 | 17 | 1003.7 |
| 20260906233037 | 78 | 187 | 16.5 | 0.0 | 0.00 | 0.00 | 0.00 | 16 | 1003.7 |
| 20260906232551 | 78 | 223 | 18.2 | 0.0 | 0.00 | 0.00 | 0.00 | 17 | 1003.8 |
| 20260906232005 | 78 | 214 | 17.4 | 0.0 | 0.00 | 0.00 | 0.00 | 16 | 1003.6 |
| 20260906231528 | 78 | 225 | 17.4 | 0.0 | 0.00 | 0.00 | 0.00 | 16 | 1003.7 |
| 20260906231042 | 79 | 188 | 15.6 | 0.0 | 0.00 | 0.00 | 0.00 | 16 | 1003.7 |
| 20260906230554 | 79 | 194 | 14.8 | 0.0 | 0.00 | 0.00 | 0.00 | 16 | 1003.7 |
| 20260906230010 | 79 | 170 | 14.8 | 0.0 | 0.00 | 0.00 | 0.00 | 16 | 1003.9 |
| 20260906225532 | 79 | 167 | 13.9 | 0.0 | 0.00 | 0.00 | 0.00 | 16 | 1004.0 |
| 20260906225041 | 79 | 161 | 16.5 | 0.0 | 0.00 | 0.00 | 0.00 | 17 | 1004.1 |
| 20260906224051 | 79 | 219 | 17.4 | 0.0 | 0.00 | 0.00 | 0.00 | 16 | 1003.8 |
| 20260906223545 | 79 | 192 | 16.5 | 0.0 | 0.00 | 0.00 | 0.00 | 16 | 1003.8 |
| 20260906223045 | 79 | 211 | 16.5 | 0.0 | 0.00 | 0.00 | 0.00 | 16 | 1003.9 |
| 20260906222554 | 79 | 180 | 14.8 | 0.0 | 0.00 | 0.00 | 0.00 | 16 | 1004.0 |
| 20260906222054 | 79 | 182 | 14.8 | 0.0 | 0.00 | 0.00 | 0.00 | 16 | 1004.1 |
| 20260906221559 | 79 | 194 | 14.8 | 0.0 | 0.00 | 0.00 | 0.00 | 16 | 1004.1 |
| 20260906221101 | 79 | 196 | 16.5 | 0.0 | 0.00 | 0.00 | 0.00 | 16 | 1004.0 |
| 20260906220558 | 79 | 197 | 16.5 | 0.0 | 0.00 | 0.00 | 0.00 | 16 | 1004.0 |
| 20260906220058 | 79 | 192 | 16.5 | 0.0 | 0.00 | 0.00 | 0.00 | 16 | 1004.3 |
| 20260906215555 | 79 | 186 | 15.6 | 0.0 | 0.00 | 0.00 | 0.00 | 16 | 1004.4 |
| 20260906215057 | 79 | 198 | 15.6 | 0.0 | 0.00 | 0.00 | 0.00 | 16 | 1004.5 |
| 20260906214602 | 79 | 216 | 15.6 | 0.0 | 0.00 | 0.00 | 0.00 | 16 | 1004.6 |
| 20260906214010 | 79 | 178 | 13.9 | 0.0 | 0.00 | 0.00 | 0.00 | 16 | 1004.5 |
| 20260906213511 | 79 | 221 | 15.6 | 0.0 | 0.00 | 0.00 | 0.00 | 17 | 1004.7 |
| 20260906213017 | 79 | 196 | 15.6 | 0.0 | 0.00 | 0.00 | 0.00 | 16 | 1004.8 |
| 20260906212523 | 79 | 196 | 13.9 | 0.0 | 0.00 | 0.00 | 0.00 | 16 | 1004.6 |
| 20260906212050 | 79 | 171 | 14.8 | 0.0 | 0.00 | 0.00 | 0.00 | 15 | 1004.8 |
| 20260906211601 | 79 | 186 | 15.6 | 0.0 | 0.00 | 0.00 | 0.00 | 15 | 1004.9 |
| 20260906211101 | 79 | 204 | 13.9 | 0.0 | 0.00 | 0.00 | 0.00 | 15 | 1004.7 |
| 20260906210558 | 79 | 189 | 12.2 | 0.0 | 0.00 | 0.00 | 0.00 | 15 | 1004.7 |
| 20260906210005 | 79 | 195 | 13.0 | 0.0 | 0.00 | 0.00 | 0.00 | 16 | 1004.8 |
| 20260906205507 | 79 | 198 | 13.9 | 0.0 | 0.00 | 0.00 | 0.00 | 16 | 1004.7 |
| 20260906205024 | 79 | 204 | 14.8 | 0.0 | 0.00 | 0.00 | 0.00 | 16 | 1004.8 |
| 20260906204524 | 78 | 239 | 15.6 | 0.0 | 0.00 | 0.00 | 0.00 | 16 | 1004.8 |
| 20260906204035 | 79 | 198 | 16.5 | 0.0 | 0.00 | 0.00 | 0.00 | 16 | 1004.9 |
| 20260906203526 | 79 | 229 | 15.6 | 0.0 | 0.00 | 0.00 | 0.00 | 16 | 1005.0 |
| 20260906203025 | 79 | 198 | 14.8 | 0.0 | 0.00 | 0.00 | 0.00 | 16 | 1005.0 |
| 20260906202529 | 79 | 186 | 13.9 | 0.0 | 0.00 | 0.00 | 0.00 | 17 | 1005.2 |
| 20260906202037 | 79 | 200 | 13.9 | 0.0 | 0.00 | 0.00 | 0.00 | 16 | 1005.2 |
| 20260906201535 | 79 | 211 | 15.6 | 0.0 | 0.00 | 0.00 | 0.00 | 16 | 1005.5 |
| 20260906201042 | 78 | 210 | 16.5 | 0.0 | 0.00 | 0.00 | 0.00 | 16 | 1005.4 |
| 20260906200542 | 78 | 123 | 14.8 | 0.0 | 0.00 | 0.00 | 0.00 | 17 | 1005.6 |
| 20260906200040 | 78 | 203 | 14.8 | 0.0 | 0.00 | 0.00 | 0.00 | 17 | 1005.6 |
| 20260906195538 | 77 | 197 | 15.6 | 0.0 | 0.00 | 0.00 | 0.00 | 18 | 1005.6 |
| 20260906195042 | 77 | 211 | 13.9 | 0.0 | 0.00 | 0.00 | 0.00 | 17 | 1005.6 |
| 20260906194551 | 77 | 180 | 13.0 | 0.0 | 0.00 | 0.00 | 0.00 | 19 | 1005.7 |
| 20260906194059 | 76 | 211 | 7.8 | 0.0 | 0.00 | 0.00 | 0.00 | 19 | 1005.7 |
| 20260906193601 | 73 | 180 | 4.3 | 0.0 | 0.00 | 0.00 | 0.00 | 27 | 1006.0 |
| 20260906193005 | 72 | 337 | 5.2 | 0.0 | 0.00 | 0.00 | 0.00 | 36 | 1005.9 |
| 20260906192516 | 72 | 330 | 6.1 | 0.0 | 0.00 | 0.00 | 0.00 | 37 | 1005.9 |
| 20260906192039 | 71 | 299 | 6.1 | 0.0 | 0.00 | 0.00 | 0.00 | 34 | 1006.0 |
| 20260906191547 | 70 | 321 | 5.2 | 0.0 | 0.00 | 0.00 | 0.00 | 37 | 1006.1 |
| 20260906191055 | 70 | 360 | 5.2 | 0.0 | 0.00 | 0.00 | 0.00 | 40 | 1006.4 |
| 20260906190515 | 69 | 304 | 5.2 | 0.0 | 0.00 | 0.00 | 0.00 | 40 | 1006.6 |
| 20260906190025 | 68 | 355 | 5.2 | 0.0 | 0.00 | 0.00 | 0.00 | 42 | 1006.7 |
| 20260906185533 | 68 | 5 | 5.2 | 0.0 | 0.00 | 0.00 | 0.00 | 42 | 1006.9 |
| 20260906185041 | 67 | 317 | 4.3 | 0.0 | 0.00 | 0.00 | 0.00 | 43 | 1006.8 |
| 20260906184553 | 67 | 329 | 4.3 | 0.0 | 0.00 | 0.00 | 0.00 | 44 | 1007.1 |
| 20260906184011 | 66 | 332 | 5.2 | 0.0 | 0.00 | 0.00 | 0.00 | 47 | 1007.3 |
| 20260906183526 | 66 | 349 | 4.3 | 0.0 | 0.00 | 0.00 | 0.00 | 47 | 1007.5 |
| 20260906183042 | 65 | 322 | 3.5 | 0.0 | 0.00 | 0.00 | 0.00 | 49 | 1007.6 |
| 20260906182546 | 64 | 17 | 3.5 | 0.0 | 0.00 | 0.00 | 0.00 | 49 | 1007.6 |
| 20260906182059 | 64 | 329 | 4.3 | 0.0 | 0.00 | 0.00 | 0.00 | 49 | 1007.8 |
| 20260906181504 | 64 | 302 | 4.3 | 0.0 | 0.00 | 0.00 | 0.00 | 50 | 1008.0 |
| 20260906181016 | 63 | 350 | 3.5 | 0.0 | 0.00 | 0.00 | 0.00 | 51 | 1008.2 |
| 20260906180540 | 63 | 274 | 3.5 | 0.0 | 0.00 | 0.00 | 0.00 | 51 | 1008.2 |
| 20260906180047 | 62 | 318 | 3.5 | 0.0 | 0.00 | 0.00 | 0.00 | 53 | 1008.5 |
| 20260906175556 | 62 | 340 | 4.3 | 0.0 | 0.00 | 0.00 | 0.00 | 53 | 1008.5 |
| 20260906175005 | 62 | 302 | 2.6 | 0.0 | 0.00 | 0.00 | 0.00 | 54 | 1008.8 |
| 20260906174522 | 62 | 336 | 4.3 | 0.0 | 0.00 | 0.00 | 0.00 | 54 | 1008.8 |
| 20260906174038 | 61 | 346 | 4.3 | 0.0 | 0.00 | 0.00 | 0.00 | 55 | 1009.0 |
| 20260906173550 | 61 | 321 | 4.3 | 0.0 | 0.00 | 0.00 | 0.00 | 56 | 1009.2 |
| 20260906173057 | 61 | 250 | 3.5 | 0.0 | 0.00 | 0.00 | 0.00 | 56 | 1009.2 |
| 20260906172504 | 61 | 298 | 4.3 | 0.0 | 0.00 | 0.00 | 0.00 | 58 | 1009.3 |
| 20260906172022 | 60 | 310 | 2.6 | 0.0 | 0.00 | 0.00 | 0.00 | 58 | 1009.4 |
| 20260906171530 | 59 | 350 | 3.5 | 0.0 | 0.00 | 0.00 | 0.00 | 61 | 1009.5 |
| 20260906171038 | 59 | 350 | 4.3 | 0.0 | 0.00 | 0.00 | 0.00 | 60 | 1009.6 |
| 20260906170559 | 59 | 339 | 3.5 | 0.0 | 0.00 | 0.00 | 0.00 | 60 | 1009.7 |
| 20260906170025 | 58 | 323 | 3.5 | 0.0 | 0.00 | 0.00 | 0.00 | 62 | 1009.8 |
| 20260906165530 | 58 | 309 | 3.5 | 0.0 | 0.00 | 0.00 | 0.00 | 62 | 1009.8 |
| 20260906165041 | 58 | 9 | 3.5 | 0.0 | 0.00 | 0.00 | 0.00 | 63 | 1009.7 |
| 20260906164546 | 58 | 334 | 3.5 | 0.0 | 0.00 | 0.00 | 0.00 | 63 | 1009.9 |
| 20260906164058 | 58 | 309 | 2.6 | 0.0 | 0.00 | 0.00 | 0.00 | 63 | 1010.1 |
| 20260906163515 | 57 | 360 | 3.5 | 0.0 | 0.00 | 0.00 | 0.00 | 64 | 1010.2 |
| 20260906163034 | 57 | 360 | 5.2 | 0.0 | 0.00 | 0.00 | 0.00 | 63 | 1010.4 |
| 20260906162542 | 57 | 338 | 6.1 | 0.0 | 0.00 | 0.00 | 0.00 | 63 | 1010.3 |
| 20260906162053 | 57 | 327 | 6.1 | 0.0 | 0.00 | 0.00 | 0.00 | 63 | 1010.4 |
| 20260906161601 | 57 | 355 | 5.2 | 0.0 | 0.00 | 0.00 | 0.00 | 62 | 1010.6 |
| 20260906161008 | 57 | 334 | 3.5 | 0.0 | 0.00 | 0.00 | 0.00 | 62 | 1010.6 |
| 20260906160528 | 57 | 11 | 4.3 | 0.0 | 0.00 | 0.00 | 0.00 | 61 | 1010.5 |
| 20260906160058 | 57 | 336 | 4.3 | 0.0 | 0.00 | 0.00 | 0.00 | 61 | 1010.6 |
| 20260906155554 | 57 | 29 | 3.5 | 0.0 | 0.00 | 0.00 | 0.00 | 62 | 1010.7 |
| 20260906155106 | 57 | 350 | 3.5 | 0.0 | 0.00 | 0.00 | 0.00 | 61 | 1010.8 |
| 20260906154513 | 57 | 342 | 3.5 | 0.0 | 0.00 | 0.00 | 0.00 | 61 | 1010.8 |
| 20260906154020 | 57 | 350 | 4.3 | 0.0 | 0.00 | 0.00 | 0.00 | 61 | 1010.7 |
| 20260906153532 | 57 | 344 | 2.6 | 0.0 | 0.00 | 0.00 | 0.00 | 60 | 1010.8 |
| 20260906153043 | 57 | 346 | 2.6 | 0.0 | 0.00 | 0.00 | 0.00 | 61 | 1010.9 |
| 20260906152601 | 57 | 332 | 2.6 | 0.0 | 0.00 | 0.00 | 0.00 | 62 | 1011.0 |
| 20260906152014 | 56 | 323 | 2.6 | 0.0 | 0.00 | 0.00 | 0.00 | 62 | 1010.9 |
| 20260906151524 | 56 | 27 | 1.7 | 0.0 | 0.00 | 0.00 | 0.00 | 62 | 1011.1 |
| 20260906151032 | 56 | 15 | 2.6 | 0.0 | 0.00 | 0.00 | 0.00 | 62 | 1011.3 |
| 20260906150544 | 56 | 9 | 2.6 | 0.0 | 0.00 | 0.00 | 0.00 | 62 | 1011.4 |
| 20260906150050 | 57 | 105 | 1.7 | 0.0 | 0.00 | 0.00 | 0.00 | 60 | 1011.5 |
| 20260906145557 | 56 | 88 | 1.7 | 0.0 | 0.00 | 0.00 | 0.00 | 61 | 1011.7 |
| 20260906145002 | 56 | 108 | 2.6 | 0.0 | 0.00 | 0.00 | 0.00 | 62 | 1011.7 |
| 20260906144507 | 56 | 108 | 2.6 | 0.0 | 0.00 | 0.00 | 0.00 | 62 | 1011.8 |
| 20260906144014 | 55 | 108 | 1.7 | 0.0 | 0.00 | 0.00 | 0.00 | 63 | 1011.8 |
| 20260906143520 | 55 | 108 | 1.7 | 0.0 | 0.00 | 0.00 | 0.00 | 64 | 1011.9 |
| 20260906143032 | 54 | 171 | 1.7 | 0.0 | 0.00 | 0.00 | 0.00 | 65 | 1011.8 |
| 20260906142542 | 53 | 199 | 1.7 | 0.0 | 0.00 | 0.00 | 0.00 | 66 | 1011.9 |
| 20260906142050 | 51 | 184 | 1.7 | 0.0 | 0.00 | 0.00 | 0.00 | 69 | 1011.8 |
| 20260906141549 | 50 | 184 | 1.7 | 0.0 | 0.00 | 0.00 | 0.00 | 70 | 1011.9 |
| 20260906141003 | 48 | 184 | 1.7 | 0.0 | 0.00 | 0.00 | 0.00 | 73 | 1011.9 |
| 20260906140524 | 47 | 184 | 1.7 | 0.0 | 0.00 | 0.00 | 0.00 | 74 | 1011.9 |
| 20260906140041 | 46 | 184 | 1.7 | 0.0 | 0.00 | 0.00 | 0.00 | 76 | 1011.9 |
| 20260906135546 | 45 | 184 | 1.7 | 0.0 | 0.00 | 0.00 | 0.00 | 75 | 1011.8 |
| 20260906135045 | 44 | 184 | 2.6 | 0.0 | 0.00 | 0.00 | 0.00 | 74 | 1011.8 |
| 20260906134549 | 44 | 184 | 2.6 | 0.0 | 0.00 | 0.00 | 0.00 | 71 | 1011.6 |
| 20260906134051 | 45 | 184 | 1.7 | 0.0 | 0.00 | 0.00 | 0.00 | 72 | 1011.6 |
| 20260906133601 | 45 | 184 | 1.7 | 0.0 | 0.00 | 0.00 | 0.00 | 74 | 1011.5 |
| 20260906133014 | 45 | 184 | 2.6 | 0.0 | 0.00 | 0.00 | 0.00 | 72 | 1011.6 |
| 20260906132532 | 45 | 184 | 2.6 | 0.0 | 0.00 | 0.00 | 0.00 | 73 | 1011.7 |
| 20260906132050 | 44 | 184 | 3.5 | 0.0 | 0.00 | 0.00 | 0.00 | 75 | 1011.7 |
| 20260906131605 | 44 | 184 | 3.5 | 0.0 | 0.00 | 0.00 | 0.00 | 73 | 1011.7 |
| 20260906131014 | 44 | 184 | 3.5 | 0.0 | 0.00 | 0.00 | 0.00 | 72 | 1011.4 |
| 20260906130525 | 44 | 184 | 3.5 | 0.0 | 0.00 | 0.00 | 0.00 | 72 | 1011.2 |
| 20260906130039 | 43 | 184 | 3.5 | 0.0 | 0.00 | 0.00 | 0.00 | 75 | 1011.2 |
| 20260906125559 | 42 | 184 | 2.6 | 0.0 | 0.00 | 0.00 | 0.00 | 74 | 1011.3 |
| 20260906125104 | 42 | 184 | 3.5 | 0.0 | 0.00 | 0.00 | 0.00 | 73 | 1011.3 |
| 20260906124518 | 43 | 184 | 2.6 | 0.0 | 0.00 | 0.00 | 0.00 | 71 | 1011.2 |
| 20260906124034 | 43 | 184 | 2.6 | 0.0 | 0.00 | 0.00 | 0.00 | 73 | 1011.2 |
| 20260906123549 | 42 | 184 | 2.6 | 0.0 | 0.00 | 0.00 | 0.00 | 74 | 1011.2 |
| 20260906123100 | 42 | 184 | 2.6 | 0.0 | 0.00 | 0.00 | 0.00 | 73 | 1011.1 |
| 20260906122515 | 43 | 184 | 3.5 | 0.0 | 0.00 | 0.00 | 0.00 | 72 | 1011.0 |
| 20260906122025 | 43 | 184 | 2.6 | 0.0 | 0.00 | 0.00 | 0.00 | 72 | 1011.0 |
| 20260906121534 | 44 | 184 | 2.6 | 0.0 | 0.00 | 0.00 | 0.00 | 71 | 1010.9 |
| 20260906121048 | 44 | 185 | 3.5 | 0.0 | 0.00 | 0.00 | 0.00 | 71 | 1010.9 |
| 20260906120558 | 44 | 193 | 3.5 | 0.0 | 0.00 | 0.00 | 0.00 | 70 | 1010.9 |
| 20260906120104 | 45 | 193 | 2.6 | 0.0 | 0.00 | 0.00 | 0.00 | 70 | 1010.7 |
| 20260906115526 | 45 | 199 | 0.9 | 0.0 | 0.00 | 0.00 | 0.00 | 70 | 1010.7 |
| 20260906115029 | 45 | 200 | 0.9 | 0.0 | 0.00 | 0.00 | 0.00 | 70 | 1010.6 |
| 20260906114539 | 45 | 200 | 1.7 | 0.0 | 0.00 | 0.00 | 0.00 | 69 | 1010.5 |
| 20260906114049 | 45 | 200 | 2.6 | 0.0 | 0.00 | 0.00 | 0.00 | 70 | 1010.4 |
| 20260906113601 | 45 | 200 | 2.6 | 0.0 | 0.00 | 0.00 | 0.00 | 70 | 1010.2 |
| 20260906113003 | 45 | 200 | 3.5 | 0.0 | 0.00 | 0.00 | 0.00 | 70 | 1010.0 |
| 20260906112521 | 45 | 200 | 3.5 | 0.0 | 0.00 | 0.00 | 0.00 | 70 | 1009.7 |
| 20260906112039 | 45 | 200 | 3.5 | 0.0 | 0.00 | 0.00 | 0.00 | 69 | 1009.5 |
| 20260906111545 | 44 | 200 | 3.5 | 0.0 | 0.00 | 0.00 | 0.00 | 69 | 1009.6 |
| 20260906111055 | 44 | 200 | 4.3 | 0.0 | 0.00 | 0.00 | 0.00 | 69 | 1009.5 |
| 20260906110504 | 44 | 200 | 4.3 | 0.0 | 0.00 | 0.00 | 0.00 | 69 | 1009.4 |
| 20260906110014 | 44 | 200 | 3.5 | 0.0 | 0.00 | 0.00 | 0.00 | 69 | 1009.4 |
| 20260906105537 | 45 | 183 | 4.3 | 0.0 | 0.00 | 0.00 | 0.00 | 68 | 1009.4 |
| 20260906105046 | 45 | 191 | 3.5 | 0.0 | 0.00 | 0.00 | 0.00 | 68 | 1009.3 |
| 20260906104629 | 45 | 187 | 3.5 | 0.0 | 0.00 | 0.00 | 0.00 | 67 | 1009.4 |
| 20260906104025 | 45 | 195 | 3.5 | 0.0 | 0.00 | 0.00 | 0.00 | 67 | 1009.3 |
| 20260906103548 | 45 | 204 | 2.6 | 0.0 | 0.00 | 0.00 | 0.00 | 67 | 1009.4 |
| 20260906103103 | 45 | 201 | 2.6 | 0.0 | 0.00 | 0.00 | 0.00 | 66 | 1009.3 |
| 20260906102513 | 45 | 201 | 2.6 | 0.0 | 0.00 | 0.00 | 0.00 | 66 | 1009.2 |
| 20260906102034 | 45 | 201 | 2.6 | 0.0 | 0.00 | 0.00 | 0.00 | 66 | 1009.2 |
| 20260906101556 | 45 | 201 | 2.6 | 0.0 | 0.00 | 0.00 | 0.00 | 65 | 1009.1 |
| 20260906101003 | 45 | 201 | 2.6 | 0.0 | 0.00 | 0.00 | 0.00 | 65 | 1009.1 |
| 20260906100522 | 45 | 201 | 2.6 | 0.0 | 0.00 | 0.00 | 0.00 | 65 | 1009.2 |
| 20260906100042 | 45 | 198 | 3.5 | 0.0 | 0.00 | 0.00 | 0.00 | 64 | 1009.1 |
| 20260906095549 | 46 | 200 | 3.5 | 0.0 | 0.00 | 0.00 | 0.00 | 63 | 1009.1 |
| 20260906095104 | 46 | 186 | 4.3 | 0.0 | 0.00 | 0.00 | 0.00 | 63 | 1008.9 |
| 20260906094513 | 46 | 294 | 4.3 | 0.0 | 0.00 | 0.00 | 0.00 | 63 | 1009.0 |
| 20260906094038 | 46 | 294 | 4.3 | 0.0 | 0.00 | 0.00 | 0.00 | 63 | 1008.9 |
| 20260906093554 | 46 | 294 | 4.3 | 0.0 | 0.00 | 0.00 | 0.00 | 64 | 1009.0 |
| 20260906093124 | 46 | 294 | 4.3 | 0.0 | 0.00 | 0.00 | 0.00 | 63 | 1009.0 |
| 20260906092517 | 46 | 294 | 5.2 | 0.0 | 0.00 | 0.00 | 0.00 | 63 | 1008.9 |
| 20260906092031 | 46 | 294 | 4.3 | 0.0 | 0.00 | 0.00 | 0.00 | 62 | 1008.9 |
| 20260906091537 | 46 | 294 | 4.3 | 0.0 | 0.00 | 0.00 | 0.00 | 62 | 1008.9 |
| 20260906091048 | 46 | 294 | 3.5 | 0.0 | 0.00 | 0.00 | 0.00 | 61 | 1008.9 |
| 20260906090559 | 46 | 294 | 3.5 | 0.0 | 0.00 | 0.00 | 0.00 | 61 | 1008.9 |
| 20260906090103 | 46 | 294 | 3.5 | 0.0 | 0.00 | 0.00 | 0.00 | 61 | 1009.0 |
| 20260906085520 | 47 | 294 | 3.5 | 0.0 | 0.00 | 0.00 | 0.00 | 60 | 1009.1 |
| 20260906085035 | 47 | 294 | 2.6 | 0.0 | 0.00 | 0.00 | 0.00 | 59 | 1009.1 |
| 20260906084540 | 48 | 302 | 1.7 | 0.0 | 0.00 | 0.00 | 0.00 | 57 | 1009.0 |
| 20260906084044 | 49 | 302 | 0.9 | 0.0 | 0.00 | 0.00 | 0.00 | 55 | 1009.2 |
| 20260906083547 | 49 | 302 | 0.0 | 0.0 | 0.00 | 0.00 | 0.00 | 56 | 1008.8 |
| 20260906083055 | 50 | 302 | 0.0 | 0.0 | 0.00 | 0.00 | 0.00 | 55 | 1008.9 |
| 20260906082605 | 50 | 302 | 1.7 | 0.0 | 0.00 | 0.00 | 0.00 | 55 | 1008.9 |
| 20260906082104 | 50 | 302 | 2.6 | 0.0 | 0.00 | 0.00 | 0.00 | 55 | 1008.8 |
| 20260906081521 | 51 | 302 | 3.5 | 0.0 | 0.00 | 0.00 | 0.00 | 55 | 1008.8 |
| 20260906081038 | 51 | 302 | 3.5 | 0.0 | 0.00 | 0.00 | 0.00 | 53 | 1008.9 |
| 20260906080547 | 52 | 302 | 3.5 | 0.0 | 0.00 | 0.00 | 0.00 | 52 | 1009.0 |
| 20260906080055 | 52 | 302 | 3.5 | 0.0 | 0.00 | 0.00 | 0.00 | 52 | 1009.0 |
| 20260906075504 | 51 | 302 | 3.5 | 0.0 | 0.00 | 0.00 | 0.00 | 54 | 1009.2 |
| 20260906075021 | 51 | 302 | 4.3 | 0.0 | 0.00 | 0.00 | 0.00 | 55 | 1009.2 |
| 20260906074535 | 50 | 290 | 5.2 | 0.0 | 0.00 | 0.00 | 0.00 | 56 | 1009.2 |
| 20260906074040 | 50 | 269 | 6.1 | 0.0 | 0.00 | 0.00 | 0.00 | 57 | 1009.3 |
| 20260906073541 | 50 | 250 | 7.0 | 0.0 | 0.00 | 0.00 | 0.00 | 57 | 1009.3 |
| 20260906073048 | 50 | 267 | 7.0 | 0.0 | 0.00 | 0.00 | 0.00 | 58 | 1009.3 |
| 20260906072555 | 49 | 351 | 5.2 | 0.0 | 0.00 | 0.00 | 0.00 | 58 | 1009.4 |
| 20260906072057 | 50 | 35 | 4.3 | 0.0 | 0.00 | 0.00 | 0.00 | 56 | 1009.4 |
| 20260906071503 | 51 | 202 | 5.2 | 0.0 | 0.00 | 0.00 | 0.00 | 55 | 1008.9 |
| 20260906071008 | 51 | 200 | 6.1 | 0.0 | 0.00 | 0.00 | 0.00 | 55 | 1008.9 |
| 20260906070518 | 51 | 199 | 7.8 | 0.0 | 0.00 | 0.00 | 0.00 | 55 | 1009.0 |
| 20260906070026 | 51 | 211 | 7.8 | 0.0 | 0.00 | 0.00 | 0.00 | 54 | 1009.0 |
| 20260906065534 | 52 | 216 | 7.8 | 0.0 | 0.00 | 0.00 | 0.00 | 54 | 1009.0 |
| 20260906065039 | 52 | 221 | 6.1 | 0.0 | 0.00 | 0.00 | 0.00 | 53 | 1009.0 |
| 20260906064546 | 51 | 219 | 5.2 | 0.0 | 0.00 | 0.00 | 0.00 | 54 | 1008.9 |
| 20260906064053 | 52 | 203 | 7.0 | 0.0 | 0.00 | 0.00 | 0.00 | 54 | 1008.8 |
| 20260906063549 | 51 | 211 | 7.0 | 0.0 | 0.00 | 0.00 | 0.00 | 54 | 1008.9 |
| 20260906063049 | 51 | 221 | 6.1 | 0.0 | 0.00 | 0.00 | 0.00 | 54 | 1009.1 |
| 20260906062549 | 52 | 234 | 5.2 | 0.0 | 0.00 | 0.00 | 0.00 | 54 | 1009.2 |
| 20260906062053 | 52 | 227 | 5.2 | 0.0 | 0.00 | 0.00 | 0.00 | 53 | 1009.2 |
| 20260906061558 | 53 | 226 | 6.1 | 0.0 | 0.00 | 0.00 | 0.00 | 53 | 1009.2 |
| 20260906061057 | 53 | 205 | 5.2 | 0.0 | 0.00 | 0.00 | 0.00 | 50 | 1009.3 |
| 20260906060506 | 52 | 202 | 2.6 | 0.0 | 0.00 | 0.00 | 0.00 | 52 | 1009.2 |
| 20260906060020 | 51 | 179 | 1.7 | 0.0 | 0.00 | 0.00 | 0.00 | 52 | 1009.5 |
| 20260906055533 | 51 | 188 | 2.6 | 0.0 | 0.00 | 0.00 | 0.00 | 53 | 1009.3 |
| 20260906055042 | 51 | 188 | 3.5 | 0.0 | 0.00 | 0.00 | 0.00 | 52 | 1009.3 |
| 20260906054549 | 51 | 193 | 3.5 | 0.0 | 0.00 | 0.00 | 0.00 | 52 | 1009.3 |
| 20260906054053 | 51 | 192 | 4.3 | 0.0 | 0.00 | 0.00 | 0.00 | 52 | 1009.3 |
| 20260906053506 | 51 | 192 | 4.3 | 0.0 | 0.00 | 0.00 | 0.00 | 51 | 1009.3 |
| 20260906053016 | 52 | 183 | 5.2 | 0.0 | 0.00 | 0.00 | 0.00 | 51 | 1009.3 |
| 20260906052525 | 53 | 169 | 6.1 | 0.0 | 0.00 | 0.00 | 0.00 | 51 | 1009.4 |
| 20260906052029 | 52 | 170 | 5.2 | 0.0 | 0.00 | 0.00 | 0.00 | 53 | 1009.5 |
| 20260906051536 | 52 | 159 | 5.2 | 0.0 | 0.00 | 0.00 | 0.00 | 53 | 1009.5 |
| 20260906051050 | 53 | 181 | 6.1 | 0.0 | 0.00 | 0.00 | 0.00 | 53 | 1009.5 |
| 20260906050556 | 53 | 185 | 6.1 | 0.0 | 0.00 | 0.00 | 0.00 | 53 | 1009.4 |
| 20260906050124 | 53 | 204 | 6.1 | 0.0 | 0.00 | 0.00 | 0.00 | 52 | 1009.4 |
| 20260906045518 | 54 | 196 | 5.2 | 0.0 | 0.00 | 0.00 | 0.00 | 51 | 1009.6 |
| 20260906045032 | 54 | 185 | 4.3 | 0.0 | 0.00 | 0.00 | 0.00 | 51 | 1009.7 |
| 20260906044538 | 54 | 189 | 3.5 | 0.0 | 0.00 | 0.00 | 0.00 | 49 | 1009.7 |
| 20260906044053 | 55 | 178 | 3.5 | 0.0 | 0.00 | 0.00 | 0.00 | 48 | 1009.7 |
| 20260906043557 | 55 | 173 | 4.3 | 0.0 | 0.00 | 0.00 | 0.00 | 49 | 1009.8 |
| 20260906043009 | 55 | 169 | 4.3 | 0.0 | 0.00 | 0.00 | 0.00 | 48 | 1009.8 |
| 20260906042528 | 56 | 189 | 4.3 | 0.0 | 0.00 | 0.00 | 0.00 | 45 | 1009.8 |
| 20260906042039 | 58 | 164 | 5.2 | 0.0 | 0.00 | 0.00 | 0.00 | 43 | 1009.7 |
| 20260906041543 | 59 | 216 | 7.0 | 0.0 | 0.00 | 0.00 | 0.00 | 42 | 1009.7 |
| 20260906041055 | 59 | 211 | 7.0 | 0.0 | 0.00 | 0.00 | 0.00 | 42 | 1009.6 |
| 20260906040559 | 59 | 202 | 7.8 | 0.0 | 0.00 | 0.00 | 0.00 | 42 | 1009.7 |
| 20260906040003 | 59 | 213 | 7.8 | 0.0 | 0.00 | 0.00 | 0.00 | 42 | 1009.7 |
| 20260906035606 | 59 | 212 | 7.0 | 0.0 | 0.00 | 0.00 | 0.00 | 42 | 1009.7 |
| 20260906035102 | 59 | 223 | 6.1 | 0.0 | 0.00 | 0.00 | 0.00 | 42 | 1009.7 |
| 20260906034556 | 59 | 215 | 6.1 | 0.0 | 0.00 | 0.00 | 0.00 | 42 | 1009.7 |
| 20260906034007 | 59 | 217 | 6.1 | 0.0 | 0.00 | 0.00 | 0.00 | 41 | 1009.7 |
| 20260906033514 | 59 | 213 | 5.2 | 0.0 | 0.00 | 0.00 | 0.00 | 40 | 1009.4 |
| 20260906033053 | 60 | 218 | 5.2 | 0.0 | 0.00 | 0.00 | 0.00 | 40 | 1009.3 |
| 20260906032533 | 60 | 201 | 5.2 | 0.0 | 0.00 | 0.00 | 0.00 | 40 | 1009.3 |
| 20260906032025 | 60 | 200 | 5.2 | 0.0 | 0.00 | 0.00 | 0.00 | 40 | 1009.2 |
| 20260906031515 | 59 | 208 | 5.2 | 0.0 | 0.00 | 0.00 | 0.00 | 40 | 1009.2 |
| 20260906031013 | 59 | 210 | 5.2 | 0.0 | 0.00 | 0.00 | 0.00 | 41 | 1009.1 |
| 20260906030513 | 58 | 213 | 5.2 | 0.0 | 0.00 | 0.00 | 0.00 | 40 | 1009.0 |
| 20260906030013 | 59 | 212 | 4.3 | 0.0 | 0.00 | 0.00 | 0.00 | 39 | 1008.9 |
| 20260906025508 | 59 | 208 | 4.3 | 0.0 | 0.00 | 0.00 | 0.00 | 39 | 1008.8 |
| 20260906025002 | 60 | 198 | 3.5 | 0.0 | 0.00 | 0.00 | 0.00 | 38 | 1008.7 |
| 20260906024505 | 60 | 186 | 3.5 | 0.0 | 0.00 | 0.00 | 0.00 | 38 | 1008.7 |
| 20260906024109 | 61 | 182 | 4.3 | 0.0 | 0.00 | 0.00 | 0.00 | 38 | 1008.8 |
| 20260906023607 | 61 | 176 | 4.3 | 0.0 | 0.00 | 0.00 | 0.00 | 37 | 1008.6 |
| 20260906023102 | 61 | 179 | 5.2 | 0.0 | 0.00 | 0.00 | 0.00 | 36 | 1008.6 |
| 20260906022607 | 62 | 171 | 4.3 | 0.0 | 0.00 | 0.00 | 0.00 | 36 | 1008.4 |
| 20260906022004 | 62 | 184 | 4.3 | 0.0 | 0.00 | 0.00 | 0.00 | 35 | 1008.2 |
| 20260906021514 | 63 | 164 | 4.3 | 0.0 | 0.00 | 0.00 | 0.00 | 34 | 1008.2 |
| 20260906021105 | 63 | 157 | 3.5 | 0.0 | 0.00 | 0.00 | 0.00 | 33 | 1008.2 |
| 20260906020605 | 64 | 160 | 3.5 | 0.0 | 0.00 | 0.00 | 0.00 | 33 | 1008.2 |
| 20260906020108 | 66 | 196 | 3.5 | 0.0 | 0.00 | 0.00 | 0.00 | 31 | 1008.1 |
| 20260906015603 | 67 | 196 | 4.3 | 0.0 | 0.00 | 0.00 | 0.00 | 30 | 1007.9 |
| 20260906015058 | 68 | 193 | 4.3 | 0.0 | 0.00 | 0.00 | 0.00 | 30 | 1008.0 |
| 20260906014609 | 69 | 195 | 4.3 | 0.0 | 0.00 | 0.00 | 0.00 | 29 | 1007.9 |
| 20260906014050 | 70 | 190 | 4.3 | 0.0 | 0.00 | 0.00 | 0.00 | 28 | 1007.9 |
| 20260906013539 | 71 | 181 | 4.3 | 0.0 | 0.00 | 0.00 | 0.00 | 27 | 1007.7 |
| 20260906013048 | 72 | 203 | 4.3 | 0.0 | 0.00 | 0.00 | 0.00 | 27 | 1007.9 |
| 20260906012545 | 73 | 207 | 6.1 | 0.0 | 0.00 | 0.00 | 0.00 | 26 | 1007.8 |
| 20260906012046 | 73 | 205 | 7.0 | 0.0 | 0.00 | 0.00 | 0.00 | 26 | 1007.7 |
| 20260906011558 | 74 | 209 | 7.0 | 0.0 | 0.00 | 0.00 | 0.00 | 25 | 1007.7 |
| 20260906011058 | 74 | 194 | 7.8 | 0.0 | 0.00 | 0.00 | 0.00 | 25 | 1007.6 |
| 20260906010501 | 74 | 180 | 8.7 | 0.0 | 0.00 | 0.00 | 0.00 | 25 | 1007.6 |
| 20260906005509 | 75 | 196 | 7.8 | 0.0 | 0.00 | 0.00 | 0.00 | 24 | 1007.7 |
| 20260906005052 | 75 | 201 | 7.8 | 0.0 | 0.00 | 0.00 | 0.00 | 24 | 1007.6 |
| 20260906004551 | 75 | 200 | 8.7 | 0.0 | 0.00 | 0.00 | 0.00 | 24 | 1007.5 |
| 20260906004043 | 75 | 180 | 10.4 | 0.0 | 0.00 | 0.00 | 0.00 | 24 | 1007.7 |
| 20260906003548 | 75 | 198 | 10.4 | 0.0 | 0.00 | 0.00 | 0.00 | 24 | 1007.6 |
| 20260906003101 | 75 | 192 | 10.4 | 0.0 | 0.00 | 0.00 | 0.00 | 24 | 1007.6 |
| 20260906002555 | 75 | 216 | 10.4 | 0.0 | 0.00 | 0.00 | 0.00 | 24 | 1007.6 |
| 20260906002101 | 75 | 200 | 10.4 | 0.0 | 0.00 | 0.00 | 0.00 | 23 | 1007.6 |
| 20260906001559 | 76 | 196 | 11.3 | 0.0 | 0.00 | 0.00 | 0.00 | 23 | 1007.5 |
| 20260906001012 | 76 | 209 | 13.0 | 0.0 | 0.00 | 0.00 | 0.00 | 23 | 1007.6 |
| 20260906000526 | 76 | 221 | 13.0 | 0.0 | 0.00 | 0.00 | 0.00 | 22 | 1007.5 |
| 20260906000042 | 76 | 211 | 13.0 | 0.0 | 0.00 | 0.00 | 0.00 | 22 | 1007.5 |
| 20260905235549 | 76 | 221 | 12.2 | 0.0 | 0.00 | 0.00 | 0.00 | 22 | 1007.5 |
| 20260905235057 | 76 | 169 | 13.0 | 0.0 | 0.00 | 0.00 | 0.00 | 22 | 1007.4 |
| 20260905234503 | 77 | 197 | 13.0 | 0.0 | 0.00 | 0.00 | 0.00 | 21 | 1007.5 |
| 20260905234010 | 76 | 189 | 13.0 | 0.0 | 0.00 | 0.00 | 0.00 | 22 | 1007.5 |